Regional Weather Roundup
Issued by NWS

Home | Current Version | Previous Version | Graphics & Text | Print | Product List | Glossary On
Versions: 1 2 3 4 5 6 7 8 9 10 11 12 13 14 15 16 17 18 19 20 21 22 23 24 25 26 27 28 29 30 31 32 33 34 35 36 37 38 39 40 41 42 43 44 45 46 47 48 49 50
000
ASUS43 KIND 040009
RWRIN

WEATHER ROUNDUP FOR INDIANA
NATIONAL WEATHER SERVICE INDIANAPOLIS IN
800 PM EDT TUE MAY 03 2016

NOTE: "FAIR" INDICATES FEW OR NO CLOUDS BELOW 12,000 FEET WITH NO
SIGNIFICANT WEATHER AND/OR OBSTRUCTIONS TO VISIBILITY.

* - STATION DOES NOT REPORT WEATHER SUCH AS PRECIPITATION OR FOG.

+ - STATION NOT QUALITY CONTROLLED BY THE NATIONAL WEATHER SERVICE.
    USE DATA WITH CAUTION...ESPECIALLY DEWPOINT AND RELATIVE
    HUMIDITY OBSERVATIONS.

INZ001>003-010>013-019-020-040100-
NORTHWEST INDIANA

CITY           SKY/WX    TMP DP  RH WIND       PRES   REMARKS
GARY /AIRPORT/ MOCLDY    66  45  45 SW9       29.79F
KNOX *+        CLOUDY    61  30  31 W6        29.80F
LA PORTE +     CLOUDY    62  42  47 SW7       29.80F
6HR MIN TEMP:  62; 6HR MAX TEMP:  67;

MICHIGAN CITY+ CLOUDY    61  41  48 S3        29.79F
MONTICELLO +   CLOUDY    61  36  39 W5        29.82F
6HR MIN TEMP:  60; 6HR MAX TEMP:  65;

RENSSELAER +   CLOUDY    63  37  39 W7        29.83S
VALPARAISO     CLOUDY    62  39  42 SW6       29.81F
6HR MIN TEMP:  62; 6HR MAX TEMP:  66;


$$

LMZ046-743>745-040100-
SOUTHERN LAKE MICHIGAN

STATION/POSITION TIME  TEMP    WIND        PRES    WAVE
                       AIR SEA DIR/SP/G            HT
                 (UTC) (F)     (DEG/KT/KT) (MB)    (FT)
BURNS HARBOR     2300   60     280/  8/ 10 1009.8F
MICHIGAN CITY    2300   62     220/  8/  8   N/A

$$

INZ004-005-014>016-021>024-040100-
NORTH CENTRAL INDIANA

CITY           SKY/WX    TMP DP  RH WIND       PRES   REMARKS
ELKHART        MOCLDY    63  41  45 W9        29.80F
GOSHEN         PTCLDY    58  37  45 W9        29.80F
6HR MIN TEMP:  58; 6HR MAX TEMP:  64;

LOGANSPORT +   CLOUDY    59  46  63 S5        29.84S
PERU/GRISSOM   PTCLDY    57  46  67 SW7       29.82F
ROCHESTER +    PTCLDY    63  39  42 SW6       29.82F
SOUTH BEND     CLOUDY    61  39  44 SW6       29.80F
6HR MIN TEMP:  61; 6HR MAX TEMP:  65;

WARSAW +       PTCLDY    59  36  41 CALM      29.81F

$$

INZ006>009-017-018-025>027-040100-
NORTHEAST INDIANA

CITY           SKY/WX    TMP DP  RH WIND       PRES   REMARKS
ANGOLA *+      CLEAR     63  39  42 SW5       29.80F
AUBURN +       CLEAR     61  37  41 SW3       29.82S
FORT WAYNE     PTCLDY    58  44  60 SW8       29.83F
6HR MIN TEMP:  58; 6HR MAX TEMP:  63;

HUNTINGTON +   CLEAR    N/A N/A N/A SW6       29.83S

$$

INZ028-029-035-036-043>045-051>053-040100-
WEST CENTRAL INDIANA

CITY           SKY/WX    TMP DP  RH WIND       PRES   REMARKS
CRAWFORDSVL +  CLOUDY    58  43  56 W5        29.86S
6HR MIN TEMP:  57; 6HR MAX TEMP:  62;

GREENCASTLE +  CLEAR     59  43  55 CALM      29.87S
LAFAYETTE      CLOUDY    59  42  53 W3        29.83F
6HR MIN TEMP:  59; 6HR MAX TEMP:  65;

TERRE HAUTE    MOCLDY    62  40  44 W6        29.87F
6HR MIN TEMP:  59; 6HR MAX TEMP:  66;


$$

INZ030>032-037>040-046>048-054>057-064-065-040100-
CENTRAL INDIANA

CITY           SKY/WX    TMP DP  RH WIND       PRES   REMARKS
CP ATTERBURY + CLEAR     59  45  58 CALM      29.88S
COLUMBUS       CLEAR     57  48  72 CALM      29.88F
FRANKFORT +      N/A     60  36  40 CALM      29.86F
6HR MIN TEMP:  59; 6HR MAX TEMP:  65;

GREENWOOD *+   CLEAR     59  46  63 CALM      29.87F
INDIANAPOLIS   PTCLDY    59  38  45 SW3       29.85F
6HR MIN TEMP:  55; 6HR MAX TEMP:  63; 6HR PCP: TRACE;

-EAGLE CREEK   CLEAR     60  42  51 SW5       29.85F
6HR MIN TEMP:  55; 6HR MAX TEMP:  63;

KOKOMO *+      CLEAR     61  43  51 SW6       29.83F
6HR MIN TEMP:  57; 6HR MAX TEMP:  64;

MARION +       CLEAR     59  44  58 SW3       29.85S
SHELBYVILLE    CLEAR     60  47  61 W5        29.86F
6HR MIN TEMP:  56; 6HR MAX TEMP:  62; 6HR PCP: TRACE;

ZIONSVILLE +   CLEAR     59  43  55 CALM      29.86F
6HR MIN TEMP:  52; 6HR MAX TEMP:  61; 6HR PCP:  0.01;


$$

INZ033-034-041-042-049-050-058-059-040100-
EAST CENTRAL INDIANA

CITY           SKY/WX    TMP DP  RH WIND       PRES   REMARKS
MUNCIE         CLEAR     59  43  55 W5        29.85F
6HR MIN TEMP:  56; 6HR MAX TEMP:  62; 6HR PCP: TRACE;


$$

INZ060-061-067>069-081>083-085>088-040100-
SOUTHWEST INDIANA

CITY           SKY/WX    TMP DP  RH WIND       PRES   REMARKS
EVANSVILLE     MOCLDY    61  41  47 W8        29.92S
6HR MIN TEMP:  60; 6HR MAX TEMP:  64;

HUNTINGBURG *+ CLOUDY    57  46  67 W5        29.91S
6HR MIN TEMP:  57; 6HR MAX TEMP:  61;

WASHINGTON +   CLEAR     61  42  50 CALM      29.89S
6HR MIN TEMP:  58; 6HR MAX TEMP:  63;


$$

INZ062-063-066-070>080-084-089>092-040100-
SOUTH CENTRAL AND SOUTHEAST INDIANA

CITY           SKY/WX    TMP DP  RH WIND       PRES   REMARKS
BLOOMINGTON    CLEAR     61  40  45 CALM      29.87F
6HR MIN TEMP:  55; 6HR MAX TEMP:  62;

MADISON *+     CLOUDY    54  46  76 CALM      29.90F
SEYMOUR +      CLOUDY    59  48  67 CALM      29.88F

$$




USA.gov is the U.S. government's official web portal to all federal, state and local government web resources and services.